GFSFLT2_sfc_rhum_114.txt.gz
RH
95 96 94 95 95 96 96 97 97 96 96 97 96 96 95 94 93 93 93 93 94 93 94 94 94 93 94 96 95 95 96 96
97 97 96 97 97 97 98 98 97 97 96 97 98 96 96 95 94 94 94 94 95 94 94 95 94 93 94 96 97 97 98 95
97 98 98 98 97 95 97 97 98 98 97 97 99 97 97 96 95 95 94 95 95 95 94 96 95 94 94 97 98 99 98 98
97 97 98 98 90 97 98 96 98 98 97 95 94 95 98 95 97 96 95 95 95 95 95 97 97 98 98 97 99 98 98 96
96 98 98 98 97 99 99 99 99 100 99 93 94 91 99 99 99 98 98 96 98 98 98 98 98 99 99 99 98 98 99 97
94 96 97 96 98 99 99 99 99 99 99 99 96 97 99 99 99 98 98 97 98 98 98 98 98 98 97 98 98 98 99 98
92 85 82 87 92 96 98 96 96 95 97 96 97 99 98 98 96 98 96 97 97 98 98 98 98 98 97 96 97 97 96 98
66 68 69 65 84 85 93 97 98 98 98 95 95 91 90 90 93 94 95 94 97 96 97 97 97 97 97 97 96 96 95 96
65 70 72 71 73 77 88 92 93 95 98 98 96 93 92 84 85 89 90 91 96 96 96 96 97 96 96 96 95 95 95 96
65 60 70 73 74 75 70 83 91 92 94 96 97 93 92 96 94 89 90 91 94 95 95 97 97 97 97 98 97 96 95 96
67 67 69 72 74 77 79 80 81 87 88 90 91 94 94 96 96 96 96 95 95 93 94 93 97 97 97 98 97 96 96 96
64 65 68 70 72 74 76 81 76 77 77 75 76 85 82 96 93 92 97 98 97 95 91 92 91 90 92 96 97 96 97 97
67 70 73 71 76 78 77 80 77 78 73 72 75 83 82 77 88 95 95 96 87 96 96 97 98 96 99 99 99 97 98 98
70 70 71 72 74 80 87 80 88 77 79 75 75 78 82 80 86 87 92 95 96 97 93 92 95 98 95 96 99 99 97 97
73 72 72 72 76 75 77 79 81 83 79 79 77 75 78 83 84 86 87 91 94 94 96 91 84 99 98 99 100 98 99 96
72 68 70 69 74 79 85 88 89 81 82 79 78 77 80 83 86 87 88 89 91 93 97 96 95 94 99 98 96 98 98 99
70 71 70 70 74 78 84 86 84 81 78 78 77 78 80 84 87 89 89 86 86 91 98 98 92 94 93 95 91 95 96 96
70 72 74 72 74 79 76 78 81 83 80 82 81 80 80 80 81 90 90 89 89 90 96 94 94 90 87 81 84 89 88 96
68 76 77 78 80 81 75 75 78 83 82 84 84 87 88 88 87 89 91 90 88 88 97 96 94 93 89 85 81 72 80 84
75 76 81 78 80 80 76 76 81 81 82 83 84 86 85 85 88 88 90 90 89 88 92 96 95 95 94 92 83 80 83 88

GFSFLT2_sfc_rhum_117.txt.gz
RH
96 96 95 95 96 97 97 97 96 96 96 97 96 95 95 93 93 92 93 95 94 95 94 94 95 94 95 95 95 95 96 98
97 98 98 98 97 97 97 98 97 97 97 98 98 97 95 94 94 94 93 94 95 94 94 95 96 96 95 96 96 95 96 96
97 98 98 98 97 96 97 97 98 98 98 98 100 98 97 96 95 95 94 95 96 96 95 96 96 94 94 96 97 99 98 98
98 98 98 98 95 97 98 98 99 98 97 99 98 91 97 96 97 96 96 96 96 97 96 96 97 98 98 97 99 98 99 98
98 98 98 98 98 99 100 100 100 97 93 88 92 87 92 94 96 99 99 97 99 98 99 99 99 99 99 99 99 99 99 99
98 98 99 99 99 100 99 99 100 100 96 95 95 95 95 89 90 90 96 99 98 98 99 98 98 98 98 98 98 99 99 99
95 81 90 97 96 97 99 99 99 98 99 98 92 94 93 87 87 88 93 99 98 99 97 98 99 99 98 98 98 98 98 99
73 72 72 70 86 89 94 96 96 98 98 98 98 98 98 98 91 90 92 99 98 98 96 95 96 98 98 98 97 98 97 97
72 75 73 73 75 80 92 94 94 95 95 92 97 98 97 96 97 98 98 98 98 98 99 99 98 97 97 98 98 97 97 97
72 66 77 78 81 82 78 88 95 94 95 93 91 91 91 98 96 95 94 98 98 98 98 98 96 95 93 98 98 97 97 97
75 76 80 82 81 82 84 86 86 92 91 92 86 88 88 92 93 97 96 97 98 97 98 97 97 95 94 95 98 98 96 95
74 74 78 79 83 84 85 81 80 85 82 81 81 91 87 93 94 95 98 99 96 95 95 96 94 96 96 96 98 98 96 96
74 76 78 77 82 90 94 89 88 80 82 77 78 86 86 83 86 90 91 96 97 98 95 90 94 98 100 100 99 99 99 98
75 77 78 79 80 88 88 91 92 84 82 78 80 79 85 83 91 90 92 93 89 98 98 97 98 98 89 97 98 97 100 99
74 76 76 78 79 80 84 83 84 85 81 82 79 78 81 86 89 93 95 95 94 93 97 97 96 99 99 94 98 99 96 99
71 72 75 72 74 82 93 97 91 89 86 81 78 78 82 85 88 92 95 94 95 94 93 97 97 98 98 98 95 96 97 99
76 73 75 78 80 81 82 82 79 77 77 80 80 78 78 81 84 83 85 89 92 95 92 89 96 94 96 100 98 99 97 96
76 75 75 75 77 79 82 79 81 82 81 84 81 80 82 84 83 87 89 91 92 92 92 94 92 97 93 90 91 93 97 97
71 78 81 80 82 81 76 78 79 82 84 84 86 86 86 86 86 89 89 90 90 92 94 93 90 96 95 92 85 80 85 84
78 77 82 83 83 80 77 78 81 81 81 82 84 84 84 84 86 87 88 88 90 92 96 93 90 96 94 93 89 85 84 82

GFSFLT2_sfc_rhum_123.txt.gz
RH
78 79 83 97 95 95 95 95 94 94 94 93 93 94 95 94 94 95 95 95 94 94 96 94 93 93 92 93 93 93 58 62
80 82 84 82 81 97 96 96 96 95 95 95 95 95 94 94 95 95 95 95 95 94 95 94 94 94 94 95 94 94 63 63
81 83 81 82 81 80 95 96 96 97 93 96 94 74 74 74 82 91 94 96 96 96 96 96 96 96 96 96 95 61 67 58
73 82 85 83 76 80 80 78 77 78 78 82 85 85 82 75 82 96 95 95 97 96 97 96 94 66 67 89 64 62 65 60
47 80 83 86 82 81 74 75 82 84 85 86 88 85 84 82 80 76 76 87 70 78 79 78 76 70 67 68 64 67 62 60
37 72 83 84 79 84 92 88 86 84 87 90 88 95 93 92 82 80 80 79 76 73 69 81 81 79 75 74 72 64 59 59
47 66 84 85 89 92 91 90 89 88 91 91 93 94 94 92 92 92 84 73 80 82 77 78 85 87 84 78 74 71 68 67
72 78 85 89 90 91 94 94 96 96 95 93 91 95 96 95 93 94 94 94 92 85 80 79 79 84 90 89 78 72 71 75
68 71 79 86 81 84 85 90 88 90 91 90 88 90 92 92 93 94 91 91 95 91 92 91 80 80 84 87 90 86 76 76
62 63 73 79 79 77 76 79 82 83 84 84 79 78 82 88 90 92 87 94 92 89 94 95 95 91 83 81 87 92 90 84
66 69 72 74 72 65 69 72 66 70 66 70 75 70 72 73 76 83 86 95 95 97 95 94 91 91 93 92 91 95 91 92
65 68 74 72 63 63 58 60 63 61 60 65 69 75 71 72 70 74 75 76 83 95 98 97 96 93 94 95 95 97 91 96
62 68 71 68 64 65 62 63 63 61 61 67 69 72 76 72 66 71 74 75 74 75 80 96 98 97 98 96 93 94 96 95
64 66 68 69 65 66 66 67 63 65 63 67 67 71 75 70 77 77 80 80 79 77 76 80 96 95 96 95 98 93 88 90
69 72 71 73 69 60 61 62 61 62 63 64 66 70 72 78 78 79 80 84 87 87 86 80 82 94 90 94 98 94 74 74
66 70 74 75 75 71 71 75 78 71 69 66 67 70 73 76 78 81 84 86 88 88 84 87 85 83 90 92 79 89 93 96
77 69 73 77 79 78 79 78 75 71 69 72 72 71 71 75 78 81 83 84 87 90 90 90 89 87 78 91 96 91 88 96
68 72 73 76 78 80 87 85 80 78 76 76 75 71 72 73 76 79 81 84 87 88 89 90 93 92 88 78 87 80 81 85
82 82 82 77 74 74 77 79 78 78 78 78 79 75 76 76 77 81 82 83 83 85 88 89 91 94 92 90 82 81 73 75
75 75 75 75 78 80 78 75 77 76 75 76 76 77 75 74 77 78 80 80 82 83 87 91 92 95 94 93 90 78 77 77

GFSFLT2_sfc_rhum_129.txt.gz
RH
54 55 72 96 95 96 95 94 92 91 90 92 94 95 95 94 94 94 94 95 95 94 93 93 93 92 90 90 91 92 58 37
43 50 55 56 63 95 95 94 94 92 90 91 93 94 94 96 95 95 94 95 96 95 94 94 94 93 93 92 92 91 59 45
29 38 42 51 53 60 92 94 93 94 90 93 91 60 56 63 76 85 94 96 97 96 96 96 96 95 94 93 93 55 47 42
19 36 43 46 39 45 57 57 60 62 60 60 67 61 55 48 60 85 94 95 96 96 96 96 94 54 56 89 64 52 43 36
34 44 53 44 42 38 40 40 45 50 66 70 72 67 62 69 59 62 65 88 65 73 70 65 59 54 44 55 54 51 42 34
42 46 57 70 70 42 38 36 38 40 44 66 72 74 68 71 67 69 68 56 61 68 78 69 63 59 52 51 46 42 37 33
48 50 59 62 74 77 84 67 56 55 61 70 75 74 80 79 75 76 73 75 74 69 67 68 76 74 71 64 58 50 47 39
51 52 60 61 70 83 91 93 93 92 93 90 88 91 86 86 81 80 80 78 68 72 76 72 74 72 76 75 71 62 57 51
52 54 60 63 63 68 73 85 92 91 90 87 82 83 87 87 90 88 87 83 80 81 79 79 73 72 69 67 72 70 63 62
48 48 54 59 62 59 65 77 78 76 70 69 75 70 74 79 82 90 89 90 92 85 88 92 87 85 83 78 74 74 70 73
47 52 55 56 55 59 59 66 66 64 62 64 68 66 66 67 64 69 77 74 84 86 90 92 90 90 92 87 85 82 81 74
47 50 56 54 47 50 52 63 62 58 58 62 60 60 60 58 50 55 55 53 53 59 74 72 92 93 90 93 92 88 86 88
45 50 55 51 49 49 47 54 61 61 57 56 54 57 63 62 61 61 63 61 64 66 62 64 58 70 92 89 93 93 90 96
44 45 48 49 46 49 48 49 46 54 59 54 52 56 64 62 71 70 71 71 74 76 77 72 60 54 77 91 92 91 97 96
46 47 47 52 53 45 46 44 43 45 45 57 56 56 60 69 69 68 70 72 74 78 81 85 84 68 63 73 89 73 61 83
51 51 49 50 55 52 57 51 51 50 48 47 50 55 58 64 68 69 70 69 75 78 73 84 87 91 74 58 62 70 84 75
52 51 49 55 56 60 56 59 55 52 54 56 53 54 56 59 65 68 71 68 74 78 80 83 83 90 88 86 76 64 66 78
51 50 47 52 55 59 65 67 67 64 67 65 63 58 56 62 64 67 70 72 75 77 78 81 82 85 85 84 88 88 75 69
50 49 50 54 59 59 61 62 62 63 67 70 74 73 72 73 70 71 71 73 74 74 77 79 81 87 87 88 86 86 83 84
55 51 52 56 59 62 62 63 61 60 65 66 70 73 72 73 79 75 76 74 71 73 74 78 80 86 86 86 84 78 82 87

GFSFLT2_sfc_rhum_132.txt.gz
RH
69 78 81 94 95 94 94 93 90 90 92 93 94 94 94 94 93 92 93 94 95 95 94 94 94 93 90 90 91 90 90 67
50 62 64 81 87 96 94 94 94 92 90 91 94 95 95 96 95 94 93 94 95 96 95 95 95 94 93 92 92 91 86 68
62 66 66 63 60 74 95 93 92 93 92 94 96 84 77 83 89 89 94 95 95 97 96 96 96 95 95 94 94 83 69 64
49 65 71 75 52 71 80 77 81 82 78 79 87 82 78 62 72 89 93 94 95 97 96 97 98 87 89 95 90 77 66 59
51 59 68 73 76 76 73 64 75 76 77 77 81 82 84 84 89 89 90 94 86 92 93 93 84 81 70 77 80 72 68 58
53 55 67 74 76 78 84 86 90 79 84 82 85 90 89 88 91 88 88 90 90 86 80 79 77 70 66 64 71 69 63 56
57 58 67 69 76 79 82 88 96 95 94 90 93 96 96 93 93 92 93 90 90 90 86 82 80 79 75 70 69 74 62 53
58 59 66 67 73 78 82 84 86 90 90 87 83 86 92 94 95 95 95 95 96 92 88 84 84 76 77 77 75 75 78 70
58 61 66 70 72 74 75 74 81 82 83 84 85 87 86 85 88 91 93 93 94 93 95 91 89 84 80 80 83 79 79 85
54 53 63 68 74 74 72 75 71 75 72 74 77 74 75 76 75 88 90 87 93 93 94 93 92 94 94 94 90 91 86 84
54 60 62 64 65 67 68 74 67 68 69 73 72 70 71 70 69 72 73 76 80 84 87 92 95 94 93 93 98 97 97 94
51 56 62 62 59 59 61 67 67 64 64 66 66 72 71 71 68 74 73 73 75 78 80 77 84 87 83 94 96 97 94 93
51 56 61 58 58 60 59 63 69 65 61 64 64 68 71 70 72 72 73 76 78 78 82 83 82 76 84 85 94 95 96 95
53 53 56 58 57 57 60 63 63 63 65 67 66 65 70 66 73 73 70 73 73 74 79 78 83 82 90 90 94 90 96 96
54 55 56 61 63 57 57 58 60 61 61 63 64 66 68 72 72 69 71 74 77 78 76 80 83 76 81 88 95 94 84 79
53 52 55 57 63 64 67 63 64 63 62 64 63 66 68 71 71 71 69 71 74 75 74 78 86 85 79 70 82 84 88 85
58 54 54 57 60 64 67 70 68 64 66 69 69 69 68 70 73 72 72 71 71 78 78 82 82 89 88 88 86 80 78 85
57 54 54 58 59 62 68 68 66 65 66 68 70 68 72 73 73 75 74 74 75 73 77 76 82 85 86 88 89 93 92 92
55 53 55 60 62 61 65 66 66 65 70 70 71 74 70 76 75 80 77 75 75 71 75 78 82 87 87 88 86 85 84 86
59 55 58 62 64 63 65 64 66 68 68 70 70 73 70 72 76 75 75 75 76 77 80 80 78 85 85 85 86 84 84 86

GFSFLT2_sfc_rhum_135.txt.gz
RH
77 87 89 92 94 92 92 91 90 91 93 93 94 95 95 94 93 92 94 95 96 96 96 96 96 95 92 91 91 90 92 87
64 67 77 78 90 96 94 93 92 92 91 92 95 96 95 95 95 94 93 94 95 96 96 96 96 96 96 94 93 91 90 87
59 68 68 74 72 82 96 94 94 93 91 92 95 97 97 96 96 96 95 95 95 95 96 97 97 96 96 96 95 94 91 82
59 68 73 74 66 83 90 85 93 97 95 95 95 96 93 80 90 96 94 95 95 95 96 97 98 95 97 97 97 93 87 77
61 64 70 74 78 86 86 92 95 96 96 93 94 91 95 93 95 95 96 97 96 97 96 97 95 96 93 94 95 93 86 74
62 65 69 72 84 85 85 84 89 94 95 94 98 99 99 98 98 97 97 98 98 97 96 90 94 90 90 84 85 86 80 73
71 71 71 71 76 81 84 86 92 92 91 90 94 96 96 96 98 97 98 98 98 98 97 94 93 89 87 81 75 85 86 91
68 70 72 78 78 88 84 82 80 84 85 86 83 92 96 96 96 93 95 97 97 97 98 98 97 96 93 88 85 89 86 94
66 66 72 74 82 84 88 85 85 78 76 84 84 87 85 82 87 86 94 96 94 96 96 96 97 96 94 95 95 93 96 98
69 61 72 73 70 85 78 88 86 85 79 76 77 77 77 80 76 82 79 82 85 86 91 92 97 98 98 97 98 98 97 97
69 72 74 71 70 71 80 80 76 73 79 73 77 75 76 77 74 74 74 78 85 85 88 92 93 92 90 94 96 98 96 94
68 70 74 73 75 72 73 81 80 78 75 72 72 76 71 74 75 78 74 76 79 81 84 84 90 92 83 89 96 97 98 98
68 72 74 71 73 76 80 78 81 79 77 72 72 77 74 72 71 74 72 77 75 78 78 81 89 84 98 95 94 91 95 98
69 68 74 72 72 71 79 82 76 78 77 75 75 76 76 71 78 73 71 76 74 76 74 78 75 79 92 97 98 92 91 90
68 71 73 77 74 72 69 73 68 71 72 74 73 73 76 79 78 77 76 75 79 76 78 78 82 73 75 90 97 99 86 87
70 68 69 69 76 77 82 84 83 83 78 75 74 74 75 79 79 77 74 76 76 76 72 79 82 83 77 72 79 83 93 92
69 71 70 72 76 79 85 86 82 80 78 74 73 70 70 74 78 81 76 77 77 76 76 78 80 89 89 89 87 83 79 92
71 72 74 74 75 76 80 82 80 81 78 72 72 70 72 72 70 76 76 77 78 79 76 77 84 84 85 86 90 94 91 94
68 74 77 76 75 74 70 69 70 75 74 76 76 77 76 75 75 78 77 76 76 78 80 78 80 86 85 86 83 86 87 89
77 75 77 73 68 74 68 67 71 73 72 75 78 78 75 73 77 76 75 77 76 76 78 78 77 83 83 82 82 80 79 85

GFSFLT2_sfc_rhum_141.txt.gz
RH
73 78 80 81 90 94 97 96 96 96 95 95 94 95 96 94 93 92 93 93 94 95 97 97 97 95 93 93 93 94 95 95
73 76 82 80 84 91 92 95 96 97 96 95 98 99 98 96 97 96 94 94 95 95 96 97 98 98 97 96 96 95 97 98
70 76 81 82 79 83 89 89 91 91 92 97 98 98 98 98 98 98 97 97 96 96 96 98 99 99 98 98 99 99 98 99
71 76 82 83 75 90 93 83 87 89 90 93 95 98 98 94 96 98 98 99 99 98 98 98 98 98 99 99 99 96 98 99
72 73 80 86 88 92 92 89 89 93 91 92 93 95 96 96 97 97 97 95 97 97 97 99 99 99 99 98 96 89 88 91
72 74 81 89 88 90 95 90 85 85 91 89 95 96 96 96 97 97 96 97 97 98 99 97 97 97 98 98 93 94 90 93
74 73 78 87 89 92 89 93 92 92 86 85 89 93 95 96 95 94 96 97 98 99 98 99 98 97 97 96 97 97 98 98
77 77 78 83 92 95 96 91 92 90 85 86 78 86 89 89 90 90 93 95 96 96 97 97 97 96 95 95 97 98 98 98
75 77 79 81 92 89 94 93 90 89 86 87 85 84 85 80 81 77 84 82 89 93 93 95 95 92 93 92 93 95 98 97
78 68 78 82 85 93 85 86 87 88 90 83 82 79 84 86 83 81 85 86 82 86 93 92 95 98 97 94 94 92 90 96
79 80 81 81 83 89 87 87 86 88 86 82 83 79 81 85 84 84 84 84 84 84 87 93 93 92 86 89 94 95 94 93
79 80 81 81 85 86 90 85 85 85 86 84 80 82 81 84 83 84 83 84 83 84 86 84 92 89 78 84 96 95 94 96
81 82 84 84 87 89 90 96 93 85 81 80 82 80 79 83 87 85 84 87 85 82 84 87 93 83 97 92 96 96 95 98
84 84 86 87 89 91 92 94 88 89 85 85 81 79 81 76 88 90 86 87 84 83 81 84 82 81 97 94 98 92 92 88
84 87 87 85 85 86 87 86 86 87 87 86 84 82 81 86 86 88 87 86 85 81 78 80 88 78 84 87 95 97 91 89
85 82 84 83 85 88 91 96 96 94 91 87 86 82 82 86 87 86 86 82 82 80 75 82 85 88 82 75 79 85 95 96
87 82 84 85 88 89 92 94 96 93 91 90 87 86 83 83 84 81 80 80 80 82 81 81 84 89 89 89 85 81 76 92
92 85 86 84 86 90 91 93 93 95 94 96 94 88 88 85 81 84 80 81 80 80 79 77 81 82 83 87 90 95 92 94
88 85 88 86 87 89 91 93 92 94 95 96 94 92 92 91 88 90 83 84 80 79 80 80 80 83 81 84 81 84 84 87
86 84 88 87 86 87 90 89 93 93 90 93 93 92 92 86 87 89 85 84 85 83 86 84 80 84 84 86 86 89 88 89

GFSFLT2_sfc_rhum_144.txt.gz
RH
78 81 80 85 92 95 96 96 95 97 96 94 96 97 97 95 94 92 92 93 94 94 95 97 96 95 92 92 92 93 91 92
79 81 84 85 88 91 92 92 91 92 93 96 98 98 97 97 98 97 95 95 95 94 95 96 97 98 98 97 95 95 95 94
80 84 86 88 84 87 90 86 88 88 90 94 96 98 98 96 97 97 97 99 99 98 97 97 98 98 97 99 99 98 98 97
82 86 89 89 79 94 94 84 88 87 89 90 94 92 94 93 96 96 94 96 94 96 98 98 98 98 98 99 97 96 95 95
79 85 90 92 94 96 94 89 86 91 88 91 93 94 95 95 96 95 94 90 96 95 93 96 97 97 97 98 97 97 94 92
78 85 91 93 91 92 93 87 89 85 87 87 94 97 96 97 96 95 96 96 96 95 97 97 96 96 96 96 97 96 95 93
80 83 93 94 90 93 89 93 92 90 85 83 86 91 93 93 92 92 94 94 96 96 96 94 94 92 93 94 95 96 96 98
81 81 88 91 95 95 97 90 90 86 86 87 84 89 86 84 85 82 87 93 94 94 94 94 94 92 90 89 89 92 95 97
81 84 85 91 91 89 91 91 88 90 86 86 85 87 90 85 84 83 83 86 89 90 88 92 93 90 91 89 88 88 90 91
81 72 87 92 92 90 86 90 91 90 86 85 83 81 85 86 86 87 88 86 84 86 90 91 93 96 93 91 91 89 86 88
82 84 86 91 94 92 93 92 91 92 84 82 82 82 82 86 86 86 88 85 85 86 86 92 93 89 84 85 91 93 92 88
82 84 83 89 94 92 88 86 88 85 85 85 80 82 81 87 87 87 86 85 84 85 86 85 93 87 79 82 94 93 95 97
82 82 87 90 93 96 94 97 94 90 85 83 81 82 83 86 88 86 86 88 87 84 86 86 91 82 95 88 93 94 92 94
84 86 87 90 92 95 94 95 92 91 89 89 84 84 86 79 91 90 90 90 87 88 86 88 86 84 94 91 97 88 91 89
87 88 87 88 89 86 88 87 86 88 89 90 87 84 87 91 91 92 93 92 91 87 83 84 87 74 84 88 91 90 85 85
86 82 83 82 84 87 89 93 95 95 94 92 91 86 88 89 90 91 92 90 91 82 77 82 84 88 79 75 78 82 92 93
92 85 84 85 87 87 89 95 97 96 95 94 91 89 88 86 88 90 92 91 86 80 80 80 82 86 86 87 82 81 80 93
90 85 85 86 90 91 92 95 96 97 96 97 94 91 88 86 86 91 91 92 88 84 80 78 79 78 79 83 87 94 94 95
92 89 92 92 93 93 93 94 94 95 96 95 94 92 90 90 90 92 93 95 91 88 86 83 84 82 82 86 83 86 84 85
91 89 91 89 91 94 93 92 93 93 91 94 95 92 88 87 89 89 82 84 84 85 84 79 86 89 82 83 82 87 95 92

GFSFLT2_sfc_rhum_150.txt.gz
RH
69 69 83 93 94 95 94 93 92 95 94 93 92 94 94 90 90 89 88 89 90 90 90 92 93 93 91 91 90 90 51 37
66 70 72 71 75 91 91 90 91 93 93 94 98 92 90 93 94 94 93 92 91 91 92 92 92 94 96 97 95 92 58 43
61 64 67 69 68 72 83 85 83 85 84 91 86 76 75 80 93 94 94 96 95 95 95 96 96 95 97 95 96 53 55 46
47 58 62 60 52 66 66 62 61 64 67 73 75 85 88 82 84 89 89 88 88 92 94 95 92 71 75 87 63 62 62 57
42 55 58 53 55 50 49 51 53 60 70 70 80 79 82 72 73 68 64 73 56 63 66 56 64 70 73 73 67 65 51 60
43 44 54 57 45 45 48 49 52 53 63 69 68 70 77 76 72 71 70 65 68 69 61 63 61 60 60 61 58 51 41 41
46 49 53 55 54 52 52 52 52 54 55 64 57 58 66 62 64 61 67 64 61 60 57 58 58 57 56 57 54 53 53 47
49 49 53 52 58 60 57 55 53 50 52 56 57 54 58 53 53 51 50 50 51 52 55 53 53 54 54 55 55 53 51 54
51 58 56 57 58 54 54 50 48 48 49 60 59 54 57 53 48 48 46 46 50 48 49 47 46 44 47 44 44 45 44 48
47 46 56 56 58 50 47 49 47 46 47 51 58 55 54 51 45 48 48 46 44 42 42 42 42 40 41 38 37 39 42 47
49 54 56 58 58 52 54 58 46 45 44 46 59 57 57 49 48 52 53 47 49 48 46 50 46 44 41 37 39 38 44 42
50 51 57 57 52 52 48 49 48 44 44 49 54 56 55 48 49 54 48 45 47 51 58 51 51 49 40 39 43 43 47 50
50 55 58 52 48 46 46 48 49 46 46 53 54 56 58 53 44 46 45 49 55 55 50 51 44 48 44 39 39 53 54 52
47 51 55 49 43 42 42 45 45 44 45 52 53 56 58 54 54 52 54 48 57 58 58 48 44 50 52 46 41 41 44 46
45 47 52 49 49 49 48 49 47 45 46 47 53 56 59 59 59 57 57 54 55 59 59 62 51 48 57 52 45 42 49 38
44 47 50 52 55 48 50 38 37 39 44 48 51 57 59 61 62 60 60 55 60 56 55 57 57 55 48 46 56 59 54 52
49 49 48 52 54 50 49 45 45 43 46 54 56 58 58 59 61 62 61 56 63 63 60 59 51 52 52 52 55 49 67 71
50 50 48 52 54 54 53 52 48 46 49 47 47 50 54 61 60 61 61 60 62 58 60 61 58 56 52 58 61 71 69 74
51 47 48 53 55 54 53 51 50 53 52 47 51 52 54 62 62 63 57 60 61 57 59 61 60 57 60 56 62 68 69 67
50 47 48 50 52 52 50 50 47 48 50 49 49 50 53 61 61 60 59 58 58 56 50 52 60 59 64 63 58 64 66 66

GFSFLT2_sfc_rhum_153.txt.gz
RH
66 69 84 94 95 95 94 94 95 94 94 90 91 90 89 87 86 86 86 86 88 88 89 89 90 92 91 90 90 88 59 40
64 69 66 68 73 93 92 93 93 92 92 95 93 91 92 92 91 90 89 90 88 88 90 90 91 92 93 95 96 93 63 46
63 65 74 78 70 76 86 86 88 91 87 89 88 73 72 76 94 94 93 93 92 92 92 92 93 93 93 96 96 57 51 56
54 62 64 61 48 66 66 62 62 67 69 74 80 83 82 76 82 89 88 88 90 92 92 90 91 64 77 92 66 62 68 52
42 53 55 51 48 46 44 45 50 60 67 68 77 79 80 74 74 68 69 80 68 72 68 64 68 65 66 70 65 60 48 42
38 38 48 49 40 36 42 41 46 47 60 65 73 73 78 76 69 67 67 59 62 60 54 64 59 56 57 59 61 51 46 50
37 42 48 49 47 44 45 46 44 50 53 62 53 60 67 67 69 65 65 62 62 64 57 54 57 55 54 55 53 51 50 45
40 41 47 45 50 54 53 50 52 48 51 55 56 51 58 52 54 52 51 51 51 54 55 54 52 52 53 52 52 52 50 51
44 49 50 51 53 50 48 46 44 46 50 59 58 52 57 53 48 48 46 46 50 46 48 45 46 43 45 43 42 43 41 45
42 39 51 52 52 46 43 46 44 44 45 50 55 51 51 48 44 47 47 44 43 41 41 42 41 40 41 40 38 38 39 44
42 47 50 53 53 46 48 52 42 40 41 45 55 52 52 46 46 50 50 44 48 46 46 48 45 43 39 36 39 39 40 36
40 46 51 52 47 49 44 45 43 40 41 46 49 52 50 43 47 50 43 41 44 49 54 46 45 44 37 34 40 40 43 46
41 48 53 48 45 43 43 44 44 42 42 48 49 51 53 47 40 42 41 46 52 52 50 45 42 47 44 37 34 50 50 48
42 45 50 44 38 37 38 41 41 40 42 48 48 51 52 49 49 48 48 47 56 58 57 48 44 49 51 48 41 45 44 43
40 42 46 43 39 39 42 44 45 44 47 47 49 51 53 54 54 53 54 50 54 58 58 60 49 48 53 52 44 39 45 40
39 40 43 42 43 45 49 44 41 36 38 44 50 53 55 57 57 56 56 53 56 53 53 54 53 50 47 44 53 55 50 48
42 40 42 42 47 46 46 42 34 38 41 53 52 55 54 55 57 58 57 54 60 61 59 57 50 49 50 50 52 49 57 57
44 42 41 44 48 46 50 45 43 39 45 48 48 50 54 58 57 59 59 59 58 58 59 60 57 55 50 52 54 57 59 62
45 43 42 44 51 50 50 46 44 44 47 42 47 49 53 60 59 59 57 59 58 55 58 60 59 57 58 53 55 59 56 54
46 45 44 44 50 51 50 46 40 39 43 41 44 46 51 59 59 58 57 56 56 52 50 51 58 58 60 57 51 55 56 57

GFSFLT2_sfc_rhum_156.txt.gz
RH
83 85 92 96 96 96 96 96 95 95 94 92 90 90 90 89 88 88 88 89 90 90 91 90 90 92 92 91 92 89 88 67
79 83 81 84 85 94 93 92 92 92 93 93 85 89 87 88 91 90 90 90 90 90 90 90 90 91 93 94 96 95 90 71
81 82 81 80 80 85 90 90 90 91 90 89 95 85 83 82 94 94 93 93 90 90 90 91 93 93 93 94 96 86 71 72
70 85 87 81 62 83 80 78 78 81 80 84 90 90 90 84 88 90 89 90 91 90 90 91 92 84 97 95 94 82 84 73
64 74 78 76 71 74 72 74 76 81 82 87 90 88 88 85 84 82 84 86 82 84 88 85 83 83 83 90 90 84 89 91
57 60 70 68 64 64 63 66 68 73 79 79 89 86 86 84 84 81 79 78 78 74 76 77 75 71 66 64 68 68 70 68
52 58 67 66 65 69 70 69 68 72 75 75 76 83 84 81 81 79 77 75 75 75 73 71 72 70 67 69 67 67 66 67
53 54 65 64 72 74 76 75 74 71 73 73 68 72 75 76 77 76 75 72 73 71 72 73 71 73 69 68 66 65 64 65
56 65 66 69 70 70 72 70 66 71 74 74 71 71 73 70 70 70 69 68 68 67 66 67 70 65 62 60 58 58 58 60
51 48 65 70 71 68 63 69 69 68 70 73 69 64 64 66 70 73 69 68 68 68 68 69 69 66 66 64 62 58 57 54
53 60 64 69 70 66 67 70 66 64 66 70 69 66 63 67 71 74 69 68 72 70 73 69 71 67 56 57 64 63 58 60
52 58 65 68 65 68 64 68 66 63 63 67 67 68 61 66 69 68 63 68 74 73 72 67 69 71 51 52 66 66 71 79
51 60 67 63 64 62 62 64 64 63 62 64 66 67 64 59 65 64 66 70 73 70 72 64 74 72 81 70 64 70 71 76
53 57 64 61 57 56 56 57 60 61 64 66 65 67 66 61 65 65 64 74 75 76 76 78 72 74 76 76 78 81 67 68
51 55 60 61 57 58 61 62 63 64 68 71 68 66 66 69 68 72 71 75 79 79 78 78 77 77 70 79 74 79 70 76
49 52 56 58 59 56 62 58 59 57 62 67 71 70 70 71 71 72 76 77 76 75 71 76 79 73 73 64 73 75 82 74
54 53 52 56 56 61 66 63 59 55 60 69 72 74 72 69 72 75 78 79 80 80 80 78 75 75 73 74 69 76 72 79
60 56 51 56 59 62 68 67 60 56 64 67 69 70 74 73 71 77 78 78 79 80 79 78 78 77 72 72 75 81 79 80
59 54 52 58 63 65 66 66 62 63 65 65 67 70 75 79 77 78 78 77 74 76 78 79 78 78 77 76 75 76 73 72
56 56 56 56 64 64 63 64 61 59 62 62 66 66 71 77 77 75 74 73 71 72 74 77 78 80 72 72 71 74 73 70

GFSFLT2_sfc_rhum_159.txt.gz
RH
87 88 92 97 96 96 96 95 95 94 92 91 91 91 92 92 91 91 91 91 91 90 91 92 92 91 91 92 93 92 94 87
97 96 97 98 98 96 96 93 96 95 92 87 85 91 90 91 90 90 90 90 91 90 91 91 90 91 93 94 95 96 98 91
96 96 96 97 97 93 92 91 91 91 90 91 93 94 89 90 94 93 93 92 91 91 92 92 93 93 94 95 95 99 93 89
89 96 94 92 77 96 97 90 96 95 94 96 94 90 92 88 90 92 92 92 92 90 89 89 90 96 98 96 99 96 96 95
84 84 86 92 87 96 96 98 97 94 94 96 94 91 91 89 89 87 87 87 88 86 87 94 96 97 95 97 97 96 96 91
88 80 89 95 90 94 96 95 96 98 95 94 92 90 87 87 88 82 80 79 79 79 81 75 70 71 68 70 75 75 73 82
84 83 83 76 74 84 79 83 88 91 89 84 95 97 97 93 87 79 78 75 76 75 74 73 73 71 68 71 72 66 72 76
76 76 76 75 83 83 89 86 86 88 90 84 79 92 96 94 92 88 79 76 73 72 71 71 68 68 67 69 66 64 65 67
68 78 76 82 85 82 86 84 84 88 86 81 79 82 79 81 78 75 76 74 73 73 71 66 70 66 64 59 62 60 64 61
67 63 82 84 82 84 80 84 87 88 86 84 76 71 72 79 82 80 76 76 75 73 77 73 75 74 70 68 60 60 56 81
72 78 82 83 81 82 81 80 81 84 86 83 75 70 70 82 84 78 77 78 78 77 79 74 77 71 57 59 65 65 75 69
72 75 81 80 83 83 81 82 80 81 85 80 74 74 68 78 78 73 76 82 80 79 78 72 77 76 58 63 73 82 85 77
71 76 83 80 84 85 86 80 78 80 77 76 73 73 68 76 75 71 78 80 82 80 81 77 80 83 85 74 87 84 86 83
67 71 71 72 75 76 76 77 77 77 77 77 75 73 71 71 74 76 77 82 82 84 85 86 82 80 81 84 91 81 83 83
63 68 65 67 69 73 79 77 75 78 80 80 77 72 75 77 79 79 85 85 86 85 86 82 84 81 80 81 77 89 83 72
63 67 66 67 71 72 71 74 73 78 81 82 84 78 79 78 80 84 88 90 87 83 81 83 83 82 81 75 83 82 86 85
66 69 69 68 72 72 69 73 74 78 83 82 83 85 80 78 82 85 87 89 87 85 86 84 86 82 85 86 85 81 81 84
68 67 70 70 71 75 74 71 74 79 83 85 88 86 87 84 82 87 88 89 88 88 87 85 84 84 81 82 84 86 84 84
67 63 67 72 76 74 72 69 74 72 74 81 88 90 92 90 88 88 87 85 84 84 85 84 81 83 80 82 80 82 78 78
70 69 64 72 77 75 76 70 66 69 71 75 80 85 88 87 88 84 81 76 77 80 82 85 81 81 78 75 79 81 79 80